Tracking 35048 objects as of 19-Aug-2026
HD Live streaming from Space Station
objects crossing your sky now

QIANFAN-53

Track QIANFAN-53 now!
10-day predictions
QIANFAN-53 is classified as:


NORAD ID: 62254
Int'l Code: 2024-232T
Launch date: December 5, 2024
Source: People's Republic of China (PRC)
Launch site: Taiyaun Space Center, China (TSC)
Your satellite tracking list
Your tracking list is empty




NASA's NSSDC Master Catalog

Two Line Element Set (TLE):
1 62254U 24232T   26231.22712459  .00000074  00000-0  96684-4 0  9996
2 62254  89.0120  16.1669 0014166 184.9230 175.1784 13.51023525101591
Source of the keplerian elements: AFSPC